Lid_Strength_Index
2 6 4 2 2 2 2 2 1 1 1 1 1 2 2 2 2 2 2 2 2 3 3 3 3 3 3 2 1 2 2 2 4 2 1 1 1 0 0 0 -0 -0 1
2 5 5 2 2 2 2 2 1 1 1 1 2 2 2 2 2 2 2 2 2 3 3 3 3 3 2 2 1 1 2 2 2 4 2 2 1 1 1 1 0 -0 0
2 6 5 2 2 2 2 2 1 1 2 2 2 2 2 2 1 2 2 2 3 3 2 2 2 2 2 2 1 2 1 2 2 2 3 1 1 1 2 1 1 1 0
2 6 3 3 2 2 2 2 2 1 2 2 2 2 2 1 1 2 2 2 2 2 2 2 2 2 2 2 2 2 2 2 2 2 3 2 2 1 1 2 2 1 1
3 3 3 2 2 2 2 2 1 2 2 2 2 2 1 1 2 2 2 2 2 2 2 2 2 2 3 2 1 2 3 2 2 3 3 3 3 3 3 2 2 2 2
3 3 3 2 2 2 2 2 2 2 3 2 2 2 2 3 9 7 3 2 2 2 2 2 2 3 3 5 4 4 2 2 2 3 3 4 3 2 2 3 3 3 4
3 3 3 3 3 2 2 2 3 3 3 3 3 4 4 5 11 9 7 2 2 2 2 2 2 2 3 2 6 6 5 6 4 1 3 3 3 2 2 3 2 2 3
3 3 3 3 3 3 2 3 3 3 4 4 4 4 4 6 11 10 8 2 2 2 2 1 1 1 2 1 2 2 2 2 1 1 1 1 0 1 1 1 1 2 1
3 3 3 3 3 3 4 4 4 5 4 4 3 4 4 6 11 10 4 2 2 2 2 1 1 1 7 8 2 3 3 3 6 7 7 7 8 7 4 1 2 3 4
3 3 2 3 3 4 4 4 4 4 4 3 3 3 5 5 11 10 4 2 3 2 2 3 7 4 10 9 2 3 3 3 4 4 4 6 6 5 6 0 1 3 3
3 2 2 3 3 3 3 4 4 4 4 4 4 3 3 4 7 10 8 2 2 3 3 4 4 11 11 9 6 2 3 4 5 3 3 3 3 2 1 1 0 1 2
2 3 3 3 3 3 3 4 4 3 4 4 4 3 3 3 8 10 8 6 5 2 3 4 6 11 11 10 7 11 10 6 3 3 3 3 3 2 1 1 1 1 1
3 3 3 3 3 2 3 4 3 3 3 4 4 4 4 3 4 10 9 9 7 2 3 8 11 12 11 10 11 10 8 2 2 2 3 3 2 1 1 2 1 1 1
3 3 3 3 3 2 2 2 3 3 3 3 4 4 4 3 4 4 5 6 8 7 8 7 8 9 9 8 5 3 2 2 2 2 2 2 2 2 2 2 2 2 3
3 3 3 3 3 5 7 4 2 2 3 3 3 4 4 3 4 6 5 3 3 6 5 3 3 4 4 3 2 2 2 1 2 2 2 2 2 2 3 2 3 3 3
3 3 3 3 4 5 5 6 12 11 10 10 8 5 5 8 10 10 11 11 10 9 3 3 4 3 3 3 3 3 2 3 2 2 2 2 3 3 3 3 2 3 3
3 3 4 4 4 4 3 4 6 10 13 13 12 11 10 11 11 12 12 12 11 7 3 3 3 3 3 3 3 2 2 2 2 2 3 3 3 3 4 3 3 3 3
4 7 3 4 4 3 3 3 4 4 5 7 12 11 12 12 12 13 12 9 4 4 3 3 3 2 2 2 2 2 2 3 3 3 3 3 3 3 4 4 3 3 4
3 3 3 3 3 4 2 3 3 4 5 8 8 10 12 13 13 12 11 3 4 4 3 3 3 2 3 2 2 2 2 3 3 2 3 3 3 3 3 3 3 8 7
3 8 6 3 3 3 3 3 4 5 5 5 6 7 7 5 5 4 4 3 3 3 3 3 3 2 2 3 3 3 3 4 4 3 3 2 2 3 3 3 3 3 3
3 3 7 3 3 3 4 4 4 4 5 5 6 6 11 4 4 4 4 3 3 3 3 3 3 3 2 2 2 2 3 3 3 3 3 3 3 2 3 3 3 2 2
3 3 2 4 3 4 4 3 3 3 4 5 6 8 13 4 6 7 7 8 6 6 5 5 6 7 6 6 5 2 2 2 1 2 1 2 2 1 1 1 1 1 2
2 2 2 3 3 6 3 3 3 3 4 5 5 4 6 8 8 8 9 10 10 9 9 8 9 9 9 9 8 7 4 4 4 3 2 1 1 1 1 1 1 2 2
2 2 3 4 3 3 3 4 3 6 4 4 5 7 8 10 10 10 11 11 11 11 11 11 11 12 11 10 10 10 9 7 4 3 2 2 3 4 3 3 4 4 4
2 2 3 4 3 3 4 3 3 4 5 7 8 10 11 11 11 12 11 12 12 12 13 12 12 12 12 11 11 12 15 14 11 12 6 7 7 7 8 9 9 9 9
2 2 3 3 3 3 4 4 6 7 8 8 9 10 11 11 12 12 13 13 13 13 13 13 14 14 14 14 15 16 15 15 13 14 9 9 9 9 9 10 10 11 10